| time (UTC) | temp F | wind direction | speed MPH | gust MPH | rain 1hr in | rain 24hr in | rain mn in | humidity % | barometer mb |
| 20260505113058 | 65 | 121 | 0.0 | 3.0 | 0.00 | 0.00 | 0.00 | 91 | 1009.9 |
| 20260505111555 | 65 | 139 | 0.0 | 1.0 | 0.00 | 0.00 | 0.00 | 90 | 1009.7 |
| 20260505101550 | 64 | 158 | 0.0 | 1.0 | 0.00 | 0.00 | 0.00 | 90 | 1010.0 |
| 20260505100123 | 63 | 158 | 0.0 | 0.0 | 0.00 | 0.00 | 0.00 | 89 | 1010.0 |
| 20260505094548 | 63 | 158 | 0.0 | 0.0 | 0.00 | 0.00 | 0.00 | 88 | 1009.9 |
| 20260505093049 | 64 | 158 | 0.0 | 0.0 | 0.00 | 0.00 | 0.00 | 88 | 1009.9 |
| 20260505091608 | 64 | 158 | 0.0 | 0.0 | 0.00 | 0.00 | 0.00 | 86 | 1009.7 |
| 20260505090057 | 64 | 158 | 0.0 | 0.0 | 0.00 | 0.00 | 0.00 | 86 | 1009.9 |
| 20260505084546 | 64 | 158 | 0.0 | 0.0 | 0.00 | 0.00 | 0.00 | 85 | 1009.7 |
| 20260505083050 | 65 | 158 | 0.0 | 1.0 | 0.00 | 0.00 | 0.00 | 84 | 1009.8 |
| 20260505081546 | 64 | 152 | 0.0 | 0.0 | 0.00 | 0.00 | 0.00 | 84 | 1009.9 |
| 20260505080049 | 64 | 153 | 0.0 | 2.0 | 0.00 | 0.00 | 0.00 | 85 | 1009.8 |
| 20260505074542 | 63 | 141 | 0.0 | 0.0 | 0.00 | 0.00 | 0.00 | 84 | 1010.0 |
| 20260505073053 | 64 | 141 | 0.0 | 0.0 | 0.00 | 0.00 | 0.00 | 84 | 1010.1 |
| 20260505071543 | 64 | 141 | 0.0 | 1.0 | 0.00 | 0.00 | 0.00 | 83 | 1010.2 |
| 20260505070037 | 64 | 142 | 0.0 | 0.0 | 0.00 | 0.00 | 0.00 | 84 | 1010.4 |
| 20260505064534 | 64 | 139 | 0.0 | 1.0 | 0.00 | 0.00 | 0.00 | 86 | 1010.7 |
| 20260505063044 | 62 | 142 | 0.0 | 0.0 | 0.00 | 0.00 | 0.00 | 85 | 1010.9 |
| 20260505061534 | 62 | 143 | 0.0 | 0.0 | 0.00 | 0.00 | 0.00 | 83 | 1010.9 |
| 20260505060029 | 63 | 142 | 0.0 | 0.0 | 0.00 | 0.00 | 0.00 | 81 | 1010.9 |
| 20260505054534 | 64 | 142 | 0.0 | 0.0 | 0.00 | 0.00 | 0.00 | 79 | 1011.0 |
| 20260505053021 | 65 | 142 | 0.0 | 1.0 | 0.00 | 0.00 | 0.00 | 77 | 1011.0 |
| 20260505051533 | 65 | 143 | 0.0 | 1.0 | 0.00 | 0.00 | 0.00 | 76 | 1010.7 |
| 20260505041517 | 66 | 129 | 0.0 | 2.0 | 0.00 | 0.00 | 0.00 | 73 | 1011.4 |
| 20260505040014 | 67 | 129 | 0.0 | 1.0 | 0.00 | 0.00 | 0.00 | 72 | 1011.5 |
| 20260505034512 | 67 | 122 | 0.0 | 2.0 | 0.00 | 0.00 | 0.00 | 71 | 1011.4 |
| 20260505033012 | 67 | 135 | 0.0 | 1.0 | 0.00 | 0.00 | 0.00 | 69 | 1011.3 |
| 20260505031524 | 68 | 127 | 0.0 | 3.0 | 0.00 | 0.00 | 0.00 | 69 | 1011.3 |
| 20260505030011 | 68 | 118 | 1.0 | 3.0 | 0.00 | 0.00 | 0.00 | 68 | 1011.3 |
| 20260505024510 | 68 | 107 | 2.0 | 5.0 | 0.00 | 0.00 | 0.00 | 68 | 1011.4 |
| 20260505023009 | 68 | 179 | 0.0 | 3.0 | 0.00 | 0.00 | 0.00 | 67 | 1011.3 |
| 20260505021508 | 69 | 95 | 0.0 | 4.0 | 0.00 | 0.00 | 0.00 | 67 | 1011.3 |
| 20260505020008 | 69 | 129 | 0.0 | 3.0 | 0.00 | 0.00 | 0.00 | 65 | 1011.3 |
| 20260505014514 | 69 | 127 | 0.0 | 4.0 | 0.00 | 0.00 | 0.00 | 65 | 1011.0 |
| 20260505013007 | 70 | 112 | 2.0 | 4.0 | 0.00 | 0.00 | 0.00 | 63 | 1011.1 |
| 20260505011509 | 70 | 44 | 2.0 | 6.0 | 0.00 | 0.00 | 0.00 | 63 | 1010.9 |
| 20260505010012 | 70 | 86 | 0.0 | 6.0 | 0.00 | 0.00 | 0.00 | 61 | 1010.9 |
| 20260505004504 | 70 | 116 | 1.0 | 4.0 | 0.00 | 0.00 | 0.00 | 60 | 1011.3 |
| 20260505003003 | 71 | 105 | 1.0 | 4.0 | 0.00 | 0.00 | 0.00 | 58 | 1011.2 |
| 20260505001502 | 72 | 322 | 1.0 | 5.0 | 0.00 | 0.00 | 0.00 | 57 | 1011.3 |
| 20260505000001 | 72 | 276 | 1.0 | 5.0 | 0.00 | 0.00 | 0.00 | 55 | 1011.3 |
| 20260504234600 | 73 | 134 | 2.0 | 5.0 | 0.00 | 0.00 | 0.00 | 54 | 1011.3 |
| 20260504233108 | 74 | 123 | 2.0 | 5.0 | 0.00 | 0.00 | 0.00 | 52 | 1011.5 |
| 20260504231558 | 75 | 110 | 1.0 | 6.0 | 0.00 | 0.00 | 0.00 | 49 | 1011.6 |
| 20260504230113 | 76 | 45 | 3.0 | 8.0 | 0.00 | 0.00 | 0.00 | 48 | 1011.8 |
| 20260504224625 | 77 | 291 | 2.0 | 6.0 | 0.00 | 0.00 | 0.00 | 46 | 1011.8 |
| 20260504223054 | 78 | 173 | 2.0 | 6.0 | 0.00 | 0.00 | 0.00 | 43 | 1012.0 |
| 20260504221553 | 78 | 106 | 3.0 | 6.0 | 0.00 | 0.00 | 0.00 | 42 | 1012.1 |
| 20260504220057 | 78 | 31 | 2.0 | 6.0 | 0.00 | 0.00 | 0.00 | 41 | 1012.3 |
| 20260504214550 | 78 | 337 | 2.0 | 6.0 | 0.00 | 0.00 | 0.00 | 42 | 1012.1 |
| 20260504213048 | 79 | 307 | 2.0 | 6.0 | 0.00 | 0.00 | 0.00 | 40 | 1012.2 |
| 20260504211550 | 79 | 20 | 2.0 | 11.0 | 0.00 | 0.00 | 0.00 | 39 | 1012.5 |
| 20260504210059 | 79 | 115 | 2.0 | 5.0 | 0.00 | 0.00 | 0.00 | 39 | 1012.2 |
| 20260504204548 | 79 | 302 | 3.0 | 7.0 | 0.00 | 0.00 | 0.00 | 38 | 1012.6 |
| 20260504203045 | 79 | 5 | 3.0 | 7.0 | 0.00 | 0.00 | 0.00 | 39 | 1012.8 |
| 20260504201546 | 79 | 360 | 4.0 | 9.0 | 0.00 | 0.00 | 0.00 | 40 | 1013.1 |
| 20260504200050 | 80 | 359 | 2.0 | 7.0 | 0.00 | 0.00 | 0.00 | 38 | 1013.4 |
| 20260504194536 | 80 | 273 | 3.0 | 9.0 | 0.00 | 0.00 | 0.00 | 39 | 1013.6 |
| 20260504193033 | 80 | 156 | 3.0 | 8.0 | 0.00 | 0.00 | 0.00 | 39 | 1013.7 |
| 20260504191534 | 80 | 271 | 3.0 | 8.0 | 0.00 | 0.00 | 0.00 | 43 | 1013.7 |
| 20260504190030 | 80 | 46 | 2.0 | 7.0 | 0.00 | 0.00 | 0.00 | 47 | 1014.0 |
| 20260504184534 | 81 | 301 | 1.0 | 7.0 | 0.00 | 0.00 | 0.00 | 44 | 1014.2 |
| 20260504183033 | 80 | 114 | 2.0 | 8.0 | 0.00 | 0.00 | 0.00 | 44 | 1014.3 |
| 20260504181525 | 81 | 359 | 1.0 | 7.0 | 0.00 | 0.00 | 0.00 | 42 | 1014.4 |
| 20260504180025 | 80 | 278 | 2.0 | 7.0 | 0.00 | 0.00 | 0.00 | 43 | 1014.4 |
| 20260504174522 | 79 | 163 | 0.0 | 5.0 | 0.00 | 0.00 | 0.00 | 41 | 1014.6 |
| 20260504173019 | 80 | 205 | 1.0 | 5.0 | 0.00 | 0.00 | 0.00 | 46 | 1014.6 |
| 20260504171518 | 80 | 136 | 3.0 | 9.0 | 0.00 | 0.00 | 0.00 | 40 | 1014.6 |